Volver al catálogo

STARLINK-37081

ActivoComunicacionesSSO
NORAD 68229·PAYLOAD·🇺🇸 United States

Lanzado Mar 17, 2026 desde Vandenberg Space Force Base

Loading…

Próximos Pases (próximas 24 horas)

TLE

ActualizadoSource: CelesTrak SupGP

Época: Sep 15, 2026, 03:51 UTC

1 68229C 26053Y   26258.16090278  .00022318  00000+0  69257-3 0  2584
2 68229  97.2846 135.0328 0002020  95.3627 255.3469 15.33437679    16

Sigue STARLINK-37081 en tiempo real con AllMySat

Download on the App Store